Regional Weather Roundup
Issued by NWS State College, PA

Home | Current Version | Previous Version | Graphics & Text | Print | Product List | Glossary On
Versions: 1 2 3 4 5 6 7 8 9 10 11 12 13 14 15 16 17 18 19 20 21 22 23 24 25 26 27 28 29 30 31 32 33 34 35 36 37 38 39 40 41 42 43 44 45 46 47 48 49 50
000
ASUS41 KCTP 242210
RWRCTP

REGIONAL WEATHER ROUNDUP
NATIONAL WEATHER SERVICE STATE COLLEGE PA
600 PM EDT THU JUL 24 2014

Note: "fair" indicates few or no clouds below 12,000 feet with no
significant weather and/or obstructions to visibility.

* = STATION THAT DOES NOT REPORT PRECIPITATION /E.G. RAIN...SNOW...ETC/
    THUNDER OR FOG.

PAZ002>004-007>009-013>016-020>023-029>032-242300-
WESTERN PENNSYLVANIA

CITY           SKY/WX    TMP DP  RH WIND       PRES   REMARKS
ERIE           SUNNY     70  47  43 N6        30.04F
MEADVILLE      MOSUNNY   68  47  46 N10       30.05F
FRANKLIN*      MOSUNNY   68  48  49 N9        30.04S
NEW CASTLE       N/A     72  52  49 N10       30.03S
BEAVER COUNTY  PTSUNNY   72  52  49 N8G20     30.01F
BUTLER*        MOSUNNY   72  52  49 N5        30.01F
PITTSBURGH INT MOSUNNY   76  53  44 N13G23    30.00S
PITTSBURGH     CLOUDY    72  51  47 VRB6      29.98S
INDIANA*       MOSUNNY   73  54  49 VRB7G14   30.02S
LATROBE        MOSUNNY   73  54  49 N8        29.98F
WASHINGTON CO* MOSUNNY   75  54  46 N7        30.00S
$$

PAZ004>006-010>012-017>019-024>028-033>037-041-042-045-046-049>053-242300-
CENTRAL PENNSYLVANIA

CITY           SKY/WX    TMP DP  RH WIND       PRES   REMARKS
BRADFORD       PTSUNNY   69  49  48 N10       30.02F
DUBOIS         MOSUNNY   73  49  42 VRB6      29.99F
CLEARFIELD     MOSUNNY   73  50  44 NW8       29.98F
JOHNSTOWN      SUNNY     69  51  52 NW8       30.00S
ALTOONA        PTSUNNY   74  52  46 N9        29.97F
STATE COLLEGE  MOSUNNY   73  54  49 N9        29.96F
WILLIAMSPORT   MOSUNNY   77  50  38 NW9       29.92F
SELINSGROVE    MOSUNNY   76  55  48 N9        29.93S
FT INDIANTOWN  PTSUNNY   77  54  44 N6        29.91F
CAPITAL CITY   CLOUDY    77  51  40 N9G17     29.91S
HARRISBURG     CLOUDY    79  53  40 N12G18    29.90S
YORK           CLOUDY    77  54  44 N10       29.90F
$$

PAZ038>040-043-044-047-048-054-055-060>062-067>071-242300-
EASTERN PENNSYLVANIA

CITY           SKY/WX    TMP DP  RH WIND       PRES   REMARKS
SCRANTON       PTSUNNY   75  48  38 N12       29.94R
MOUNT POCONO   PTSUNNY   68  50  52 NW13      29.95S
ALLENTOWN      PTSUNNY   77  53  43 NW13      29.88S
QUAKERTOWN*    PTCLDY    77  55  47 N7        29.88F
READING        PTSUNNY   77  54  44 N8        29.88F
LANCASTER      PTSUNNY   75  54  47 N10       29.89S
COATESVILLE    PTCLDY    75  54  46 N9        29.90S
POTTSTOWN      MOSUNNY   77  53  43 N10       29.89S
BLUE BELL      PTSUNNY   81  55  41 N7        29.85F
DOYLESTOWN     PTSUNNY   80  54  40 N7        29.86F
WILLOW GROVE   NOT AVBL
NORTH PHILA    SUNNY     82  52  35 N13       29.86F
PHILADELPHIA   PTSUNNY   81  54  39 N10       29.85F
$$



USA.gov is the U.S. government's official web portal to all federal, state and local government web resources and services.